Date,TemperatureHighF,TemperatureAvgF,TemperatureLowF,DewpointHighF,DewpointAvgF,DewpointLowF,HumidityHigh,HumidityAvg,HumidityLow,PressureMaxIn,PressureMinIn,WindSpeedMaxMPH,WindSpeedAvgMPH,GustSpeedMaxMPH,PrecipitationSumIn
2012-1-1,59,50,42,19,12,10,35,22,15,30.32,30.20,9,2,18,0.00
2012-1-2,63,51,40,13,11,8,28,20,12,30.35,30.24,7,1,13,0.00
2012-1-3,67,51,41,19,14,10,30,24,14,30.34,30.23,7,1,12,0.00
2012-1-4,64,52,42,16,13,11,29,22,13,30.41,30.29,11,2,15,0.00
2012-1-5,68,55,41,22,16,13,34,22,14,30.30,30.05,8,2,13,0.00
2012-1-6,69,60,53,32,18,-22,37,22,3,30.09,29.96,14,6,23,0.00
2012-1-7,58,52,41,30,18,4,48,26,12,30.11,29.94,19,10,30,0.00
2012-1-8,54,45,38,14,9,5,32,23,15,30.21,30.10,19,10,28,0.00
2012-1-9,58,47,39,21,14,7,47,27,19,30.25,30.16,14,5,22,0.00
2012-1-10,63,49,37,25,21,16,54,35,22,30.17,30.03,10,2,19,0.00
2012-1-11,57,48,39,22,18,13,39,30,23,30.11,30.01,13,3,18,0.00
2012-1-12,55,46,38,16,9,-1,35,23,12,30.14,30.03,17,5,23,0.00
2012-1-13,56,45,32,4,-1,-6,28,15,8,30.24,30.12,13,6,19,0.00
2012-1-14,57,44,36,4,0,-5,23,15,9,30.21,30.08,5,1,10,0.00
2012-1-15,54,47,38,36,14,-4,83,32,10,30.08,29.95,20,11,31,0.00
2012-1-16,46,40,34,37,32,20,85,73,57,30.10,29.92,17,10,32,0.00
2012-1-17,54,39,25,26,19,11,64,45,26,30.22,30.08,9,2,16,0.00
2012-1-18,63,53,36,14,-4,-20,36,12,4,30.25,30.12,21,9,28,0.00
2012-1-19,64,55,45,21,0,-10,30,11,6,30.12,29.98,22,10,33,0.00
2012-1-20,64,53,44,42,31,-4,92,49,10,30.06,29.90,18,8,32,0.00
2012-1-21,47,44,38,45,36,21,95,77,48,30.04,29.78,25,15,42,0.63
2012-1-22,50,44,38,40,31,21,90,62,46,30.09,29.98,16,8,32,0.02
2012-1-23,43,41,39,40,38,35,94,88,75,30.01,29.78,25,14,45,0.53
2012-1-24,52,48,46,37,31,25,69,51,40,30.30,30.15,15,8,25,0.00
2012-1-25,60,50,42,34,30,23,62,47,32,30.33,30.20,11,3,15,0.00
2012-1-26,65,54,43,43,37,29,79,55,27,30.22,30.03,28,11,37,0.00
2012-1-27,58,50,41,42,29,11,82,50,16,30.22,30.03,20,12,32,0.00
2012-1-28,55,43,34,14,5,-10,34,22,7,30.33,30.19,23,10,32,0.00
2012-1-29,58,47,38,10,2,-5,28,16,10,30.29,30.07,11,3,16,0.00
2012-1-30,63,50,37,22,13,6,34,24,12,30.09,29.92,12,3,23,0.00
2012-1-31,61,51,43,38,28,18,62,41,25,30.14,29.93,13,4,22,0.00
2012-2-1,59,49,41,36,30,20,65,49,22,30.14,30.02,27,7,39,0.00
2012-2-2,55,46,37,36,25,6,79,48,21,30.06,29.93,18,8,24,0.00
2012-2-3,51,42,32,12,8,4,36,26,19,30.09,29.98,14,6,27,0.00
2012-2-4,54,43,32,19,15,11,43,33,24,30.10,30.02,15,6,26,0.00
2012-2-5,56,45,35,19,16,12,49,32,21,30.11,29.99,14,5,25,0.00
2012-2-6,53,45,34,16,14,12,44,28,21,30.06,29.93,11,4,17,0.00
2012-2-7,47,43,40,37,24,12,79,50,26,30.01,29.87,16,4,21,0.03
2012-2-8,58,48,37,35,31,26,83,55,31,30.21,29.99,14,6,23,0.02
2012-2-9,71,55,38,34,24,14,67,35,15,30.26,30.14,12,3,17,0.00
2012-2-10,67,55,41,40,26,15,65,35,19,30.17,30.00,13,5,21,0.00
2012-2-11,52,46,42,42,36,29,89,70,51,30.00,29.86,20,11,33,0.00
2012-2-12,50,44,41,39,34,30,84,68,53,29.94,29.84,22,13,32,0.00
2012-2-13,43,39,35,40,34,26,94,83,66,29.91,29.78,17,11,29,0.23
2012-2-14,53,40,34,32,28,21,81,64,34,29.98,29.78,21,10,31,0.01
2012-2-15,41,36,32,36,30,23,93,77,51,29.96,29.83,23,14,33,0.09
2012-2-16,54,44,33,27,21,15,71,44,22,30.14,29.95,23,9,34,0.01
2012-2-17,61,49,33,22,16,12,51,28,15,30.17,30.08,11,3,19,0.00
2012-2-18,57,49,42,38,28,18,81,47,29,30.10,29.93,16,7,27,0.00
2012-2-19,48,42,37,36,24,1,78,53,19,29.99,29.90,22,10,34,0.00
2012-2-20,55,44,36,29,18,3,57,37,22,30.09,29.93,10,3,15,0.00
2012-2-21,57,48,36,25,20,16,58,35,20,30.20,30.06,13,6,20,0.00
2012-2-22,71,56,45,29,23,13,46,28,18,30.20,29.96,17,6,26,0.00
2012-2-23,70,58,45,33,22,13,46,26,14,30.00,29.87,14,5,23,0.00
2012-2-24,67,56,46,24,15,8,32,20,10,30.16,29.99,11,4,19,0.00
2012-2-25,60,51,43,33,25,7,57,37,16,30.11,29.90,23,14,39,0.00
2012-2-26,60,47,38,39,23,2,87,45,11,29.94,29.75,19,8,31,0.00
2012-2-27,42,37,32,38,34,28,95,87,69,29.78,29.67,20,10,33,0.32
2012-2-28,45,37,31,33,29,27,90,73,51,30.14,29.78,20,10,34,0.06
2012-2-29,49,41,33,40,32,26,92,72,51,30.15,30.06,15,9,30,0.01
2012-3-1,45,40,36,36,29,25,81,66,48,30.09,29.98,27,16,37,0.00
2012-3-2,53,43,32,31,8,-11,83,34,8,30.29,30.00,24,11,40,0.00
2012-3-3,62,49,36,6,0,-8,17,13,9,30.34,30.25,14,5,25,0.00
2012-3-4,68,54,44,19,11,2,32,18,13,30.27,30.09,15,4,20,0.00
2012-3-5,73,58,43,32,20,15,39,24,11,30.10,29.92,16,5,25,0.00
2012-3-6,57,46,34,39,24,11,84,44,25,29.93,29.68,27,12,40,0.00
2012-3-7,49,38,27,18,6,-1,57,29,13,30.12,29.78,18,8,33,0.00
2012-3-8,62,49,35,7,2,-1,23,15,8,30.31,30.13,19,9,31,0.00
2012-3-9,67,54,41,19,8,0,28,16,10,30.31,30.06,15,5,26,0.00
2012-3-10,71,58,43,29,15,6,42,20,9,30.06,29.90,16,8,28,0.00
2012-3-11,57,50,45,40,29,19,78,46,26,29.96,29.86,23,11,33,0.00
2012-3-12,59,50,40,41,33,17,75,53,31,29.97,29.89,18,10,29,0.00
2012-3-13,56,48,42,39,37,34,80,67,46,30.01,29.89,18,11,30,0.00
2012-3-14,61,51,42,40,38,36,80,63,39,30.10,29.94,13,7,23,0.00
2012-3-15,66,54,45,43,40,37,75,60,40,30.10,29.99,15,6,25,0.00
2012-3-16,54,50,44,45,43,40,95,77,58,30.01,29.80,20,11,33,0.07
2012-3-17,45,39,31,43,37,29,95,91,82,29.79,29.53,23,14,42,1.61
2012-3-18,41,33,29,30,26,19,95,76,51,29.78,29.53,24,12,33,0.25
2012-3-19,49,38,30,26,19,-1,72,51,13,29.97,29.76,18,10,26,0.01
2012-3-20,62,48,34,33,20,6,54,33,19,30.13,29.96,15,4,22,0.00
2012-3-21,73,56,40,40,35,31,78,49,26,30.10,29.95,13,3,21,0.00
2012-3-22,67,58,50,42,35,-100,73,45,28,30.00,29.85,18,2,31,0.00
2012-3-23,59,51,44,42,37,29,79,59,36,30.00,29.85,19,10,30,0.00
2012-3-24,58,49,41,42,37,23,84,65,40,29.92,29.81,18,10,32,0.00
2012-3-25,48,40,33,40,35,21,91,83,43,29.82,29.67,19,11,38,1.52
2012-3-26,51,42,34,41,36,32,94,83,56,30.03,29.81,15,8,25,0.36
2012-3-27,56,47,40,38,31,16,88,57,27,30.02,29.94,17,8,27,0.01
2012-3-28,59,51,42,46,34,10,80,52,24,30.03,29.93,15,8,23,0.00
2012-3-29,70,55,47,45,38,31,76,55,27,30.03,29.93,20,11,33,0.00
2012-3-30,73,58,50,46,38,30,78,49,26,29.99,29.89,15,7,28,0.00
2012-3-31,52,46,38,46,42,30,95,85,68,29.95,29.86,22,12,33,0.29
2012-4-1,46,40,36,33,31,28,82,69,51,30.05,29.88,34,19,50,0.29
2012-4-2,63,49,37,32,25,17,72,43,18,30.09,29.92,16,6,25,0.01
2012-4-3,70,54,40,38,27,21,64,39,20,30.03,29.90,17,4,27,0.00
2012-4-4,65,53,42,41,36,30,83,55,32,29.98,29.85,21,13,32,0.00
2012-4-5,53,43,36,34,26,15,69,52,36,30.00,29.82,26,14,35,0.00
2012-4-6,57,45,34,19,12,5,52,29,13,30.11,29.99,22,10,31,0.00
2012-4-7,68,52,38,16,8,2,32,17,9,30.13,30.03,13,3,20,0.00
2012-4-8,73,56,39,29,17,9,44,24,10,30.09,29.98,16,4,26,0.00
2012-4-9,71,59,46,27,18,10,32,21,11,30.02,29.90,17,7,28,0.00
2012-4-10,63,53,42,37,23,7,81,35,15,29.93,29.76,23,11,37,0.00
2012-4-11,50,43,40,42,38,35,94,83,59,30.01,29.71,18,11,34,0.35
2012-4-12,50,42,37,41,37,33,95,83,64,30.07,29.93,18,11,32,0.01
2012-4-13,43,39,34,40,36,29,94,88,76,29.94,29.64,21,11,38,1.56
2012-4-14,45,39,34,34,30,-100,84,72,58,30.01,29.66,23,15,36,0.02
2012-4-15,65,51,34,43,33,28,83,54,27,30.14,29.99,15,5,23,0.01
2012-4-16,72,58,43,40,31,21,52,37,22,30.19,30.08,15,5,25,0.00
2012-4-17,77,64,50,41,35,28,54,36,21,30.12,29.99,18,6,26,0.00
2012-4-18,74,62,54,43,37,29,58,41,20,30.05,29.93,23,13,36,0.00
2012-4-19,79,65,53,43,39,26,65,41,23,30.06,29.95,24,12,36,0.00
2012-4-20,86,70,52,45,40,37,62,38,18,30.12,30.00,14,4,18,0.00
2012-4-21,88,74,58,51,42,35,54,34,19,30.05,29.95,12,4,20,0.00
2012-4-22,85,71,55,53,44,28,68,42,19,30.00,29.93,15,5,26,0.00
2012-4-23,67,55,47,52,48,41,95,80,39,29.97,29.87,24,10,38,0.00
2012-4-24,69,55,46,53,45,29,96,72,27,30.02,29.93,17,10,30,0.01
2012-4-25,75,61,51,50,43,32,83,53,26,30.00,29.80,16,7,28,0.01
2012-4-26,52,49,47,49,47,43,97,91,80,30.02,29.79,19,11,33,0.20
2012-4-27,72,55,42,44,38,25,84,56,25,30.07,29.95,22,12,35,0.02
2012-4-28,77,61,49,41,33,-100,66,38,17,29.97,29.83,21,10,31,0.00
2012-4-29,80,65,47,50,36,23,58,36,17,29.95,29.83,12,5,24,0.00
2012-4-30,79,67,53,53,42,32,87,44,18,29.98,29.91,16,8,24,0.00
2012-5-1,59,52,48,50,48,44,96,86,58,29.92,29.79,20,10,36,0.00
2012-5-2,57,50,47,48,46,44,96,87,68,29.89,29.76,23,15,33,0.00
2012-5-3,61,52,46,48,45,42,92,77,61,30.01,29.88,23,10,30,0.00
2012-5-4,67,56,48,49,42,29,82,61,32,30.04,29.96,24,14,35,0.00
2012-5-5,75,59,47,43,30,-100,65,38,12,30.06,29.94,25,11,35,0.00
2012-5-6,77,63,47,36,27,13,50,29,9,30.03,29.94,15,7,25,0.00
2012-5-7,79,67,54,39,27,18,42,24,11,30.06,29.93,20,8,29,0.00
2012-5-8,82,68,51,39,24,16,40,21,9,30.00,29.91,18,7,33,0.00
2012-5-9,87,75,66,31,24,18,22,15,9,30.01,29.89,16,8,24,0.00
2012-5-10,78,69,57,53,40,27,77,37,19,29.93,29.83,16,8,30,0.00
2012-5-11,78,66,57,49,40,27,65,39,17,30.01,29.85,14,8,25,0.00
2012-5-12,86,69,55,50,37,-100,66,35,11,30.09,29.98,13,5,23,0.00
2012-5-13,88,70,55,50,40,30,64,37,13,30.10,30.00,16,6,27,0.00
2012-5-14,77,66,54,41,34,17,54,33,12,30.06,29.93,19,8,30,0.00
2012-5-15,76,64,47,40,34,24,69,36,16,29.98,29.91,22,10,32,0.00
2012-5-16,88,75,65,42,38,35,37,27,16,29.99,29.90,25,13,36,0.00
2012-5-17,81,72,59,52,40,25,62,33,16,29.93,29.80,18,11,31,0.00
2012-5-18,69,61,47,40,32,25,76,35,24,29.91,29.79,26,14,37,0.00
2012-5-19,85,69,56,43,34,-100,54,30,14,29.98,29.88,14,5,22,0.00
2012-5-20,89,75,60,44,35,27,44,25,14,30.03,29.94,11,5,21,0.00
2012-5-21,87,75,60,47,36,28,43,26,12,30.04,29.96,17,6,29,0.00
2012-5-22,79,70,63,42,34,22,41,27,14,30.03,29.88,28,17,45,0.00
2012-5-23,71,62,55,43,36,27,59,39,22,29.91,29.70,36,20,49,0.00
2012-5-24,77,63,53,49,34,14,85,39,12,29.76,29.64,22,13,34,0.00
2012-5-25,58,50,44,47,40,30,89,69,46,29.74,29.63,18,11,32,0.00
2012-5-26,59,48,38,41,36,30,84,63,45,29.98,29.73,16,11,30,0.00
2012-5-27,77,60,47,40,35,26,73,43,16,30.05,29.94,14,7,24,0.00
2012-5-28,79,66,52,40,33,23,49,32,13,30.01,29.94,15,6,25,0.00
2012-5-29,77,66,52,43,36,29,53,34,21,30.04,29.94,17,7,27,0.00
2012-5-30,84,71,56,46,40,31,52,33,15,30.05,29.97,18,7,29,0.00
2012-5-31,97,80,68,48,37,21,41,23,7,30.04,29.90,20,8,30,0.00
2012-6-1,90,78,64,53,38,30,55,26,13,29.94,29.85,19,6,28,0.00
2012-6-2,84,73,62,51,44,-100,64,38,20,29.91,29.84,20,10,29,0.00
2012-6-3,83,73,61,54,46,35,72,40,23,29.93,29.85,20,9,34,0.00
2012-6-4,67,61,53,53,51,47,82,70,56,29.98,29.88,20,9,34,0.00
2012-6-5,59,51,43,47,32,22,82,52,24,29.98,29.90,29,18,42,0.00
2012-6-6,76,61,46,37,30,22,58,35,15,29.93,29.84,21,11,32,0.00
2012-6-7,88,70,54,41,32,22,40,26,10,29.95,29.86,17,6,29,0.00
2012-6-8,79,70,58,50,42,29,56,38,24,29.91,29.83,20,9,35,0.00
2012-6-9,74,65,57,50,36,22,61,35,22,29.85,29.77,21,10,35,0.00
2012-6-10,85,69,55,48,29,11,58,28,7,29.97,29.82,14,5,26,0.00
2012-6-11,90,74,55,47,30,19,60,23,8,30.03,29.93,13,4,22,0.00
2012-6-12,89,76,59,41,34,26,41,23,11,30.02,29.93,16,5,28,0.00
2012-6-13,80,73,63,53,41,32,62,33,23,29.96,29.79,19,10,30,0.00
2012-6-14,77,68,57,52,47,40,67,49,33,29.85,29.78,17,6,28,0.00
2012-6-15,82,68,55,53,48,43,77,52,25,29.88,29.78,14,5,23,0.00
2012-6-16,94,78,61,48,38,-100,53,30,7,29.97,29.85,17,6,34,0.00
2012-6-17,93,80,66,47,35,23,44,21,9,30.03,29.93,13,5,22,0.00
2012-6-18,84,75,66,44,38,28,42,28,14,29.98,29.88,16,7,27,0.00
2012-6-19,83,72,61,46,40,23,55,33,15,29.92,29.83,15,7,27,0.00
2012-6-20,93,75,62,51,38,26,49,29,9,29.90,29.82,14,6,25,0.00
2012-6-21,79,72,62,51,45,34,62,39,23,29.93,29.86,16,9,30,0.00
2012-6-22,77,69,58,47,40,32,57,36,23,29.93,29.83,18,9,26,0.00
2012-6-23,75,65,56,47,43,37,65,45,32,29.90,29.78,18,9,29,0.00
2012-6-24,79,65,51,42,33,13,68,36,10,30.00,29.88,17,8,28,0.00
2012-6-25,76,66,56,39,27,11,39,24,11,30.02,29.93,17,9,30,0.00
2012-6-26,80,68,53,41,35,24,54,33,16,29.98,29.83,17,8,28,0.00
2012-6-27,83,71,57,40,31,14,53,26,8,29.99,29.84,16,7,28,0.00
2012-6-28,86,72,58,41,30,18,40,23,9,30.08,29.98,17,6,29,0.00
2012-6-29,84,72,58,40,30,19,37,23,10,30.09,29.99,15,6,26,0.00
2012-6-30,83,74,63,45,41,29,44,31,20,30.02,29.91,16,9,27,0.00
2012-7-1,80,71,63,53,50,32,68,48,24,29.93,29.85,18,11,30,0.00
2012-7-2,84,72,60,53,50,42,74,48,24,29.93,29.86,17,6,25,0.00
2012-7-3,83,72,62,52,48,41,62,44,26,29.94,29.85,17,7,29,0.00
2012-7-4,80,70,57,52,48,35,77,48,27,29.95,29.88,19,7,28,0.00
2012-7-5,84,74,59,53,47,35,69,40,24,30.00,29.91,15,6,26,0.00
2012-7-6,86,74,58,51,45,36,70,40,17,30.05,29.98,16,6,28,0.00
2012-7-7,87,76,61,45,33,11,49,24,9,30.07,30.00,17,7,28,0.00
2012-7-8,91,80,69,29,14,3,21,9,4,30.09,30.01,15,7,25,0.00
2012-7-9,96,82,63,41,28,11,29,16,5,30.06,29.96,12,4,21,0.00
2012-7-10,98,85,72,40,34,25,27,17,12,30.02,29.91,14,5,29,0.00
2012-7-11,99,87,73,43,37,27,26,17,12,29.99,29.89,12,6,23,0.00
2012-7-12,88,83,77,54,46,36,43,28,17,30.01,29.88,13,6,23,0.00
2012-7-13,88,78,71,59,49,30,64,39,16,30.06,29.93,16,5,25,0.00
2012-7-14,86,77,67,47,38,14,41,26,7,30.03,29.91,17,10,30,0.00
2012-7-15,82,71,58,43,33,26,43,26,16,30.00,29.90,17,7,29,0.00
2012-7-16,76,66,56,46,36,24,63,34,21,29.96,29.88,23,10,36,0.00
2012-7-17,72,62,50,47,44,40,87,54,32,30.00,29.89,21,12,37,0.00
2012-7-18,81,70,61,45,37,29,54,32,16,30.04,29.95,16,7,29,0.00
2012-7-19,89,77,64,49,45,39,51,34,21,30.08,29.99,12,4,23,0.00
2012-7-20,89,78,64,53,44,31,51,31,17,30.10,30.00,17,5,28,0.00
2012-7-21,94,82,65,44,35,27,39,20,10,30.07,29.95,14,6,21,0.00
2012-7-22,92,81,72,44,34,20,32,19,8,30.04,29.95,17,8,29,0.00
2012-7-23,87,77,68,46,36,26,43,24,14,30.05,29.96,18,9,29,0.00
2012-7-24,82,73,65,43,31,7,41,23,8,30.04,29.95,18,12,33,0.00
2012-7-25,84,74,65,34,12,-8,27,10,4,30.06,29.95,20,10,34,0.00
2012-7-26,82,73,63,39,20,-5,31,15,5,30.02,29.93,20,11,30,0.00
2012-7-27,82,72,61,39,29,14,41,23,10,30.04,29.96,19,8,31,0.00
2012-7-28,87,73,58,40,34,15,46,27,7,30.06,29.99,11,4,27,0.00
2012-7-29,93,77,56,44,31,19,33,19,9,30.07,29.96,12,4,19,0.00
2012-7-30,91,78,66,51,40,31,46,27,12,30.05,29.95,16,7,28,0.00
2012-7-31,93,78,67,50,40,15,48,27,11,30.09,30.00,14,5,26,0.00
2012-8-1,94,80,67,56,45,32,63,32,16,30.17,30.03,12,5,22,0.00
2012-8-2,98,83,72,46,37,28,34,20,11,30.08,29.95,13,6,22,0.00
2012-8-3,85,73,66,55,46,32,60,39,17,29.98,29.87,12,5,21,0.04
2012-8-4,89,77,66,54,49,41,60,40,19,30.02,29.90,14,5,22,0.04
2012-8-5,94,81,67,51,45,37,54,32,16,30.12,29.98,13,5,20,0.00
2012-8-6,98,85,67,44,38,33,32,20,11,30.15,30.04,16,6,26,0.00
2012-8-7,98,86,69,46,38,31,32,19,13,30.11,29.99,13,6,23,0.00
2012-8-8,99,86,73,48,41,35,31,21,16,30.06,29.96,12,5,22,0.00
2012-8-9,100,87,73,51,42,36,34,22,15,30.06,29.94,13,4,25,0.00
2012-8-10,99,88,74,51,44,41,35,23,16,29.98,29.87,14,4,23,0.00
2012-8-11,99,86,72,52,46,-100,36,26,16,29.96,29.88,17,5,26,0.00
2012-8-12,101,87,72,56,49,46,48,28,17,29.99,29.89,13,4,23,0.00
2012-8-13,100,86,71,50,48,46,44,29,17,30.01,29.90,11,4,18,0.00
2012-8-14,95,85,76,51,48,45,39,29,19,29.98,29.86,15,6,31,0.00
2012-8-15,91,80,71,53,48,44,49,34,21,29.99,29.89,16,6,28,0.00
2012-8-16,95,82,69,49,43,37,43,27,14,30.03,29.94,15,5,30,0.00
2012-8-17,93,82,73,48,43,39,36,25,18,30.05,29.95,15,6,23,0.00
2012-8-18,90,81,74,51,42,37,34,25,19,30.04,29.93,14,7,23,0.00
2012-8-19,95,82,71,49,44,35,40,27,18,30.00,29.90,14,5,23,0.00
2012-8-20,80,74,69,46,42,36,42,32,22,30.00,29.94,7,3,17,0.00
2012-8-23,89,80,69,55,48,41,56,33,21,30.01,29.91,14,7,23,0.00
2012-8-24,86,75,65,54,46,37,62,39,20,29.98,29.90,19,7,29,0.00
2012-8-25,84,73,65,52,44,37,58,38,20,29.94,29.85,18,8,30,0.00
2012-8-26,83,72,63,47,33,22,45,26,11,30.01,29.87,16,10,29,0.00
2012-8-27,91,77,63,40,30,13,43,21,6,30.09,29.99,12,5,21,0.00
2012-8-28,95,80,62,46,40,37,43,26,14,30.07,29.96,14,4,21,0.00
2012-8-29,95,83,72,50,42,36,35,24,15,29.99,29.90,11,4,21,0.00
2012-8-30,88,80,71,55,46,33,50,32,19,29.95,29.88,15,7,28,0.00
2012-8-31,83,74,66,54,44,28,55,36,14,29.99,29.90,17,9,30,0.00
2012-9-1,85,70,53,35,27,8,50,23,6,30.04,29.96,14,5,21,0.00
2012-9-2,88,73,54,36,23,4,34,18,5,30.04,29.95,14,5,24,0.00
2012-9-3,90,75,57,36,25,9,37,18,6,30.07,29.99,13,5,22,0.00
2012-9-4,89,80,73,44,24,13,22,14,7,30.11,30.00,14,8,26,0.00
2012-9-5,77,72,65,62,37,12,77,35,9,30.09,30.01,13,4,25,0.06
2012-9-6,82,72,63,56,53,50,68,53,39,30.06,30.00,14,6,24,0.01
2012-9-7,86,79,71,54,53,52,55,42,33,30.09,30.02,12,7,23,0.00
2012-9-8,97,81,66,53,49,45,57,36,18,30.09,29.96,9,4,18,0.00
2012-9-9,95,81,68,56,50,46,50,36,19,30.04,29.91,14,4,22,0.00
2012-9-10,83,76,66,61,58,47,73,55,42,30.00,29.89,17,11,28,0.00
2012-9-11,66,66,65,59,58,57,78,76,74,29.96,29.92,10,8,18,0.00
2012-9-16,89,80,68,52,41,31,49,28,13,30.15,30.03,13,6,23,0.00
2012-9-17,85,73,64,46,38,30,48,30,14,30.11,30.01,14,6,24,0.00
2012-9-18,89,75,62,39,31,18,39,22,8,30.12,30.03,11,4,16,0.00
2012-9-19,92,77,60,38,33,30,34,22,12,30.12,30.02,12,3,19,0.00
2012-9-20,92,79,62,39,34,31,34,21,12,30.09,29.99,11,4,20,0.00
2012-9-21,91,79,66,40,36,32,34,22,15,30.06,29.96,12,4,22,0.00
2012-9-22,87,76,66,46,39,-100,39,28,17,30.06,29.99,14,5,24,0.00
2012-9-23,88,78,70,41,37,35,34,24,15,30.10,30.01,14,6,23,0.00
2012-9-24,80,72,64,42,37,16,40,28,14,30.06,29.93,17,9,32,0.00
2012-9-25,83,69,61,47,34,20,54,29,14,29.97,29.88,11,6,23,0.00
2012-9-26,86,71,53,41,35,29,60,31,14,29.97,29.89,10,3,21,0.00
2012-9-27,86,72,57,42,35,32,41,28,16,30.03,29.93,11,4,27,0.00
2012-9-28,86,74,62,43,36,31,38,26,15,30.03,29.93,19,4,49,0.00
2012-9-29,89,75,60,44,37,31,47,27,13,30.11,30.01,10,3,18,0.00
2012-9-30,91,78,64,42,35,28,37,23,11,30.16,30.06,12,4,23,0.00
2012-10-1,93,77,62,40,30,24,37,20,9,30.14,30.01,10,2,18,0.00
2012-10-2,95,78,64,37,30,25,32,19,9,30.05,29.93,12,3,23,0.00
2012-10-3,82,75,66,44,34,28,36,22,16,30.07,29.98,19,10,33,0.00
2012-10-4,78,70,64,44,33,19,44,26,16,30.12,30.04,15,8,23,0.00
2012-10-5,76,67,61,47,37,30,59,34,22,30.11,30.01,23,16,31,0.00
2012-10-6,77,68,61,47,40,34,59,38,23,30.03,29.93,18,10,29,0.00
2012-10-7,80,65,55,55,45,35,72,50,21,29.98,29.91,12,4,24,0.00
2012-10-8,74,62,53,53,47,37,83,61,29,30.01,29.95,13,4,25,0.00
2012-10-9,69,58,49,51,46,41,85,68,38,30.00,29.93,16,6,23,0.00
2012-10-10,62,55,50,49,45,39,90,71,42,29.97,29.87,16,9,26,0.00
2012-10-11,56,50,47,45,42,40,88,76,54,29.93,29.83,14,7,23,0.00
2012-10-12,57,50,46,46,44,41,88,80,64,30.15,29.91,15,7,24,0.00
2012-10-13,74,57,42,47,41,38,90,60,28,30.22,30.10,9,2,14,0.00
2012-10-14,79,64,51,42,37,32,65,41,19,30.22,30.08,15,3,23,0.00
2012-10-15,84,69,57,39,33,27,42,27,15,30.10,29.96,10,2,15,0.00
2012-10-16,85,70,57,47,34,25,46,28,15,30.02,29.86,16,5,24,0.00
2012-10-17,83,71,59,48,40,32,63,36,16,30.03,29.88,14,5,24,0.00
2012-10-18,82,65,55,56,39,27,82,43,14,30.12,30.02,8,2,15,0.00
2012-10-19,83,68,55,53,43,32,85,45,21,30.08,29.93,12,4,20,0.00
2012-10-20,68,58,55,54,48,27,93,72,22,29.93,29.79,18,9,31,0.00
2012-10-21,62,56,53,53,51,49,95,86,63,29.90,29.82,20,11,32,0.03
2012-10-22,56,52,48,50,47,43,93,82,65,29.93,29.83,21,14,33,0.01
2012-10-23,59,51,43,46,35,20,90,56,35,29.94,29.88,13,8,25,0.00
2012-10-24,55,48,43,37,32,23,74,56,32,30.10,29.92,24,13,33,0.00
2012-10-25,64,54,46,36,33,27,62,46,32,30.12,30.04,19,10,29,0.00
2012-10-26,63,53,42,34,22,11,56,33,17,30.20,30.06,18,9,31,0.00
2012-10-27,71,58,47,23,14,6,23,18,13,30.07,29.96,14,5,22,0.00
2012-10-28,77,61,48,25,21,17,32,22,11,30.08,29.99,9,2,13,0.00
2012-10-29,81,64,51,30,24,20,37,23,11,30.14,30.05,10,2,17,0.00
2012-10-30,80,64,50,26,22,17,33,21,10,30.11,30.01,10,2,17,0.00
2012-10-31,74,62,53,31,21,14,36,21,10,30.06,29.96,13,4,21,0.00
2012-11-1,67,59,52,43,30,17,66,36,16,30.00,29.91,14,6,25,0.00
2012-11-2,70,57,47,42,35,26,77,48,19,30.02,29.92,8,2,16,0.00
2012-11-3,72,58,45,34,27,20,54,33,16,30.14,30.00,10,2,16,0.00
2012-11-4,75,61,47,23,21,18,37,23,13,30.23,30.14,12,3,21,0.00
2012-11-5,77,65,50,25,22,18,31,20,14,30.24,30.13,13,4,21,0.00
2012-11-6,79,67,55,35,28,23,37,25,16,30.17,30.07,8,2,13,0.00
2012-11-7,74,64,56,45,35,29,62,37,19,30.09,29.96,13,5,21,0.00
2012-11-8,57,50,46,48,44,35,94,81,44,29.96,29.79,21,13,39,0.03
2012-11-9,50,42,37,44,33,26,93,71,48,29.87,29.76,15,8,22,0.02
2012-11-10,43,38,34,29,25,19,74,59,43,30.08,29.84,23,10,34,0.00
2012-11-11,49,39,29,24,16,9,64,41,25,30.31,30.07,15,6,24,0.00
2012-11-12,53,42,33,9,6,3,35,23,13,30.31,30.16,15,7,25,0.00
2012-11-13,60,47,34,7,3,-2,28,17,8,30.21,30.09,10,2,14,0.00
2012-11-14,61,48,38,10,5,-100,24,18,12,30.15,30.04,9,2,13,0.00
2012-11-15,59,51,43,33,13,9,54,23,15,30.12,30.03,7,2,15,0.00
2012-11-16,57,51,47,45,37,26,86,59,41,30.07,29.98,13,7,21,0.00
2012-11-17,51,50,49,49,47,45,92,90,85,30.07,29.95,18,10,31,0.32
2012-11-18,55,50,47,48,46,44,93,87,73,30.14,29.98,13,7,22,0.04
2012-11-19,61,51,43,47,43,37,94,77,42,30.20,30.06,12,5,23,0.01
2012-11-20,66,51,38,45,38,30,91,67,26,30.18,30.03,8,1,12,0.00
2012-11-21,64,55,45,43,36,23,74,52,24,30.08,30.01,19,9,31,0.00
2012-11-22,65,54,45,41,35,29,75,51,27,30.21,30.03,12,5,21,0.00
2012-11-23,67,56,47,31,26,21,47,33,19,30.27,30.16,14,3,19,0.00
2012-11-24,68,53,43,25,23,21,48,33,17,30.20,30.00,6,1,13,0.00
2012-11-25,70,57,44,36,26,20,53,33,15,30.00,29.87,14,5,24,0.00
2012-11-26,67,53,41,33,27,20,59,39,17,30.12,29.95,8,1,12,0.00
2012-11-27,65,52,41,41,26,22,66,39,20,30.18,30.05,11,2,13,0.00
2012-11-28,58,50,45,47,41,33,93,73,44,30.14,30.01,19,8,33,0.25
2012-11-29,53,51,49,51,49,46,95,92,84,30.15,30.06,23,14,37,0.62
2012-11-30,55,52,49,52,50,45,95,90,79,30.09,30.01,19,14,35,0.47
2012-12-1,53,51,49,52,49,46,99,94,87,30.14,30.04,20,10,29,0.19
2012-12-2,52,50,49,50,49,47,95,94,90,30.07,29.97,20,14,33,0.49
2012-12-3,57,52,42,52,48,38,95,86,68,30.17,30.01,15,7,25,0.30
2012-12-4,60,48,39,41,37,31,84,68,44,30.28,30.15,7,1,11,0.02
2012-12-5,70,57,43,46,36,16,66,46,20,30.19,30.02,22,8,31,0.00
2012-12-6,62,53,48,45,42,-100,77,67,47,30.04,29.91,18,10,30,0.00
2012-12-7,60,50,42,43,36,26,82,61,39,30.04,29.93,15,3,20,0.00
2012-12-8,65,53,42,28,15,-3,49,24,8,29.99,29.89,13,3,21,0.00
2012-12-9,59,50,41,26,20,16,44,31,21,30.18,29.93,10,3,15,0.00
2012-12-10,60,48,40,26,22,19,54,37,22,30.19,30.06,11,2,16,0.00
2012-12-11,62,49,37,39,28,23,74,47,25,30.07,29.85,18,6,33,0.00
2012-12-12,47,44,43,42,40,35,93,86,63,29.87,29.74,21,14,34,0.24
2012-12-13,45,40,34,41,36,29,96,85,74,29.75,29.65,15,6,26,0.46
2012-12-14,41,36,32,33,30,26,88,78,67,29.88,29.64,18,9,31,0.12
2012-12-15,46,38,32,31,27,21,87,66,38,29.97,29.83,16,7,22,0.01
2012-12-16,44,40,37,42,38,29,93,89,73,30.05,29.94,21,12,33,0.01
2012-12-17,47,44,43,45,42,41,95,93,89,30.07,29.91,18,11,29,0.12
2012-12-18,45,39,30,44,32,17,95,77,57,29.94,29.77,21,12,32,0.32
2012-12-19,41,33,26,20,11,1,74,43,20,30.25,29.93,21,9,32,0.04
2012-12-20,40,33,27,11,6,1,45,32,23,30.25,30.10,13,4,18,0.00
2012-12-21,51,34,23,19,14,9,64,45,24,30.10,29.99,4,1,6,0.00
2012-12-22,48,39,28,40,26,14,94,64,25,30.09,29.98,17,7,29,0.10
2012-12-23,44,42,39,42,39,36,95,90,84,30.09,29.95,23,14,35,0.11
2012-12-24,47,43,39,45,35,22,95,75,44,30.06,29.92,25,13,39,0.26
2012-12-25,42,39,33,30,22,14,74,53,32,30.10,29.86,18,4,32,0.01
2012-12-26,43,40,36,39,33,29,94,77,61,29.90,29.78,22,13,33,0.34
2012-12-27,40,36,29,31,28,23,84,73,59,30.06,29.83,32,13,42,0.00
2012-12-28,43,35,27,24,22,18,80,60,38,30.12,29.98,9,2,14,0.00
2012-12-29,38,31,25,30,23,19,88,73,49,29.98,29.88,4,1,7,0.00
2012-12-30,40,33,26,31,28,23,89,80,63,29.97,29.83,17,6,26,0.01
2012-12-31,43,34,26,29,24,19,85,68,38,30.15,29.97,12,3,17,0.01
2013-1-1,43,34,26,20,15,8,74,48,27,30.18,30.07,18,7,28,0.01